Theta_e
334 334 336 339 338 337 338 338 338 337 338 339 339 339 339 340 341 342 342 342 341 340 340 339 339 339 339 339 339 339 339 338 337 334 333 333 332 331 329 327 326 326 326 326 325 325 324 324 325 327 331 336 339 340 341 340 340 339 336 331 329 332 336 339 340 341 342 342 341 342 342 340 338 340 342 342 342 341 342 343 340 339 339 340 341
327 329 334 336 336 336 336 336 336 337 338 338 339 339 339 339 340 342 342 342 342 341 340 340 339 339 340 340 340 340 340 341 339 338 337 337 336 335 334 332 330 329 329 329 329 330 330 329 328 327 328 333 336 336 337 338 337 336 334 330 328 329 334 339 341 341 342 342 341 342 342 341 338 339 343 342 342 343 343 344 342 340 339 340 341
324 329 331 333 332 332 331 332 333 334 336 336 337 337 338 339 339 340 339 340 341 340 340 340 340 340 340 340 340 340 340 341 340 339 339 338 338 338 337 336 335 335 335 335 336 338 338 338 337 334 329 326 325 323 327 332 335 335 333 329 325 328 332 337 341 342 343 343 343 343 343 341 338 339 339 338 341 344 344 345 343 341 339 340 341
325 327 328 329 328 328 328 330 331 332 333 334 335 336 337 337 338 339 338 338 339 339 338 340 341 341 340 341 341 341 339 339 340 339 340 339 338 338 337 336 337 337 337 338 339 340 340 339 339 339 335 328 320 314 314 319 327 332 334 330 322 323 330 334 339 342 343 343 344 344 344 342 340 339 336 334 341 345 345 345 344 341 340 341 341
322 323 324 326 326 327 327 328 329 329 330 331 332 333 334 336 336 337 338 339 339 339 339 339 339 340 340 340 340 340 340 339 339 338 340 341 339 338 337 338 339 339 339 340 341 341 340 339 338 337 338 337 332 325 318 315 319 324 330 333 327 320 326 332 334 340 342 343 345 344 344 342 339 339 337 334 341 345 345 344 344 342 341 341 341
318 320 322 323 324 325 325 327 326 326 327 328 329 330 331 333 333 334 335 336 337 338 338 338 338 339 339 339 338 338 339 339 339 339 340 341 341 340 339 340 339 338 339 340 341 341 341 340 338 337 338 338 338 336 333 327 323 324 326 331 333 325 325 331 332 335 340 344 346 345 343 342 340 338 337 337 342 344 345 345 344 342 342 342 341
316 318 319 321 322 323 323 324 324 324 324 325 326 326 328 329 330 331 332 332 333 334 335 336 336 337 337 337 337 337 337 338 338 339 340 341 341 341 341 339 337 337 338 338 338 339 340 339 338 337 337 337 336 337 339 336 332 331 329 329 333 331 327 331 333 333 337 343 346 346 344 342 341 338 334 335 342 345 345 345 344 343 343 342 341
313 315 316 318 319 319 320 320 321 320 320 321 321 322 323 324 325 327 328 329 330 330 330 332 333 333 334 334 335 335 335 336 337 338 339 340 340 340 341 339 338 338 338 337 337 338 339 339 338 336 335 334 334 336 339 339 337 336 335 334 335 336 333 331 333 332 334 340 344 346 344 342 341 339 333 333 341 345 345 344 344 343 342 342 341
310 310 312 314 314 314 315 316 316 316 316 315 316 316 317 319 320 322 324 325 326 327 328 329 329 330 330 331 331 331 332 333 334 336 337 338 338 339 339 339 339 339 338 337 337 338 338 337 336 335 334 333 333 335 337 338 338 337 337 336 336 338 337 334 332 332 332 334 339 344 345 343 341 340 335 334 342 344 345 345 344 343 342 343 342
305 305 305 307 307 308 308 307 308 308 308 307 307 308 309 311 312 314 316 318 320 322 323 324 325 326 326 328 328 328 329 329 330 331 334 336 337 337 338 338 337 336 337 337 337 337 335 335 335 334 334 334 334 334 336 336 336 337 337 337 336 337 338 336 332 330 331 331 333 338 342 344 342 340 336 338 343 342 343 345 344 342 343 345 343
302 302 301 302 302 301 301 300 300 300 301 301 301 301 302 303 304 306 307 309 311 314 316 319 321 322 322 324 325 325 326 327 327 328 330 332 334 335 335 336 335 335 335 335 336 337 335 334 334 333 334 334 334 334 335 335 335 336 337 337 336 336 337 338 336 331 330 332 333 333 337 343 344 340 336 340 343 339 342 345 344 343 343 345 344
301 301 300 300 299 299 298 298 298 298 298 298 298 298 299 299 300 301 301 302 303 305 308 311 314 316 318 320 322 322 322 324 325 325 327 329 330 331 332 333 334 335 335 335 335 335 335 335 335 333 334 334 333 333 334 334 334 335 336 337 336 335 336 337 338 336 333 333 336 335 335 340 344 342 336 339 341 337 343 345 344 344 344 344 344
300 300 299 299 298 298 297 297 297 297 297 297 297 297 297 298 298 298 299 299 299 300 301 304 305 308 310 313 315 317 319 320 321 322 324 325 326 328 329 330 331 332 333 333 334 334 334 334 335 334 334 333 333 333 333 333 333 334 334 335 336 335 335 336 337 338 337 336 338 338 336 337 341 343 337 338 340 338 343 345 344 345 345 344 344
300 299 298 298 298 297 297 297 296 296 296 296 296 296 297 296 297 297 297 298 298 298 298 299 300 301 303 305 308 311 313 316 318 319 320 321 322 324 325 327 328 329 330 331 332 333 333 333 333 333 333 333 333 333 333 333 332 332 333 333 335 335 335 335 335 336 338 339 339 339 338 336 337 342 339 337 339 339 342 344 344 345 345 344 343
299 298 298 298 297 297 296 296 296 296 296 296 296 296 296 296 296 296 297 297 297 297 297 297 298 299 299 300 302 304 306 308 311 314 316 317 319 320 322 323 325 326 327 329 331 331 333 333 334 333 333 333 332 332 332 332 332 331 332 332 333 334 335 335 335 334 336 339 340 339 338 337 336 339 339 336 338 342 343 343 345 345 345 344 343
298 298 297 297 297 296 296 296 296 296 296 296 296 296 296 296 296 296 296 296 296 296 296 297 297 297 298 298 299 299 300 302 304 306 308 310 312 315 317 319 320 322 324 325 327 328 330 332 332 333 334 333 332 331 330 330 330 331 331 331 331 332 334 335 334 333 333 336 339 338 337 337 336 338 339 336 337 342 343 341 343 345 345 344 343
297 297 297 297 296 296 295 295 295 295 296 296 296 296 296 296 296 296 296 296 296 296 296 296 296 297 297 297 297 297 297 298 299 300 301 303 305 308 310 311 313 316 319 321 322 324 326 328 330 331 332 333 333 331 329 328 328 329 331 331 331 330 332 334 334 333 332 334 337 337 335 336 336 337 338 336 335 340 343 341 342 344 344 344 343
297 296 296 296 296 295 295 295 295 295 295 295 295 295 295 295 295 295 295 295 295 295 295 296 296 296 296 296 296 296 296 297 297 298 298 298 299 301 303 304 306 308 312 314 317 319 321 323 326 328 330 331 332 333 331 329 327 328 329 330 329 328 330 332 333 333 333 333 334 334 335 336 337 338 338 337 335 337 341 341 342 343 343 343 343
296 295 295 296 295 295 295 295 294 295 295 295 295 295 295 295 295 295 295 295 295 295 295 295 295 295 296 296 296 296 296 296 296 297 297 297 297 298 298 299 300 303 305 308 310 312 315 318 321 324 326 328 330 331 332 331 330 330 329 330 329 328 328 330 332 333 333 333 332 331 333 335 338 339 337 337 337 337 340 341 342 341 341 343 343
295 295 295 295 295 295 294 294 294 294 294 294 295 294 294 294 294 294 294 295 295 295 295 295 295 295 295 295 295 295 296 296 296 296 296 296 296 296 296 296 297 298 300 303 305 307 309 312 316 319 322 324 326 328 330 330 331 331 331 331 331 330 329 330 331 331 332 334 332 330 330 332 335 338 338 337 338 338 339 341 342 341 341 342 342
295 295 295 295 295 294 294 294 294 294 294 294 294 294 294 294 294 294 294 294 294 294 294 294 294 294 294 294 295 295 295 295 295 295 295 295 296 296 296 296 296 296 296 297 300 302 304 307 309 313 316 319 322 325 327 327 328 329 329 330 332 331 330 330 332 331 332 333 332 330 328 330 333 337 339 338 337 338 338 341 342 341 342 343 342
295 294 295 295 294 294 294 294 294 294 294 294 294 294 294 294 294 294 294 294 294 294 294 294 294 294 294 294 294 294 294 294 294 294 294 295 295 295 295 295 295 295 295 295 296 297 299 302 305 308 311 314 318 322 323 324 325 326 327 328 330 332 329 328 330 332 332 332 332 330 328 329 332 335 337 338 339 338 338 340 341 342 342 343 342
294 294 294 294 294 293 293 293 293 294 294 294 294 294 294 294 294 294 294 294 294 294 294 294 293 294 294 294 294 294 294 294 294 294 294 294 294 295 295 295 295 295 295 294 295 295 296 297 300 302 306 310 313 317 318 320 321 322 324 325 327 330 330 328 327 330 331 332 331 330 328 327 329 331 335 338 338 339 338 339 342 343 343 343 343
294 294 294 294 294 293 293 293 293 294 294 294 294 293 294 294 294 294 294 294 294 294 294 294 293 293 293 294 294 294 294 294 294 294 294 294 294 294 294 294 294 294 294 294 294 294 295 295 296 297 300 303 306 309 311 313 316 318 320 322 324 326 329 330 329 329 329 331 331 330 328 327 328 328 333 337 338 339 340 338 340 343 342 343 344
294 294 294 294 293 293 293 293 293 293 293 293 293 293 293 294 294 294 294 294 294 294 294 294 294 294 294 294 294 294 294 294 294 294 294 294 294 294 294 294 294 294 294 294 294 294 294 294 295 295 296 297 299 301 303 305 309 312 315 317 321 323 326 328 330 330 329 330 331 331 329 327 327 327 330 336 338 339 340 339 339 341 341 342 343
294 294 293 293 293 293 293 293 293 293 293 293 293 293 293 293 293 294 294 294 294 294 294 294 294 294 294 294 294 294 294 294 293 293 293 293 293 293 293 293 293 293 293 293 293 293 294 294 294 295 295 295 296 297 298 300 302 306 309 311 316 320 323 325 328 330 330 331 330 330 330 329 328 327 329 335 338 338 340 339 339 341 339 339 340
293 293 293 293 293 293 293 293 293 293 293 293 293 293 293 293 293 293 293 293 293 293 293 293 293 293 294 294 294 294 294 293 293 293 293 292 292 292 292 292 292 292 293 293 293 293 294 294 295 295 295 295 295 296 297 298 299 301 303 306 309 315 321 323 326 329 330 331 330 330 331 330 329 328 328 332 336 338 340 339 339 341 340 337 338
293 293 293 293 293 293 292 292 292 292 293 292 292 292 293 293 293 293 293 293 293 292 293 293 293 293 293 293 293 293 293 293 293 292 292 292 292 292 292 292 292 292 292 292 293 293 293 294 295 295 295 295 295 296 296 297 297 298 300 302 304 308 315 320 324 327 329 330 331 331 332 331 330 329 327 330 335 337 339 339 338 340 341 338 339
293 293 293 293 292 292 292 292 292 292 292 292 292 292 292 292 292 292 292 292 292 292 292 292 292 293 293 293 293 293 292 292 292 291 291 292 292 292 292 292 292 292 292 292 293 293 294 294 295 296 296 296 296 296 297 297 297 297 298 299 301 303 308 314 320 324 327 329 331 331 332 332 331 330 329 330 333 335 337 338 337 338 340 340 340
293 293 293 292 292 292 292 292 291 292 292 292 292 292 292 292 292 292 292 292 292 292 292 292 292 292 292 292 292 292 292 292 291 291 290 290 291 291 291 292 292 292 292 292 292 293 294 295 295 295 296 296 297 297 297 297 297 297 298 298 299 300 302 306 313 320 323 326 329 330 331 333 332 331 331 332 332 333 335 337 337 338 339 340 341
292 293 292 292 292 292 291 291 291 291 291 292 292 292 292 292 292 292 292 292 292 292 292 292 292 292 291 291 291 291 291 291 291 290 290 290 290 290 290 291 291 291 291 291 292 292 293 294 295 296 296 296 297 297 297 298 298 298 297 298 299 299 300 302 306 313 319 322 325 329 331 332 333 332 331 332 333 331 330 334 337 338 339 340 340
292 292 292 292 292 291 291 291 291 291 291 292 292 292 292 292 292 292 292 292 292 292 292 292 292 291 291 291 291 290 290 290 289 289 289 290 290 290 290 290 290 290 290 291 291 291 292 293 294 295 296 296 296 297 297 298 298 298 298 298 298 298 299 300 302 307 313 317 321 325 329 331 332 333 331 330 332 330 327 331 336 338 338 339 339
292 292 292 292 291 291 290 291 291 291 291 291 291 291 291 291 291 291 291 292 291 292 291 291 291 291 291 291 291 290 290 290 289 289 289 289 289 290 290 289 289 289 289 289 290 290 291 292 293 294 295 296 297 297 298 298 298 299 298 298 298 298 299 299 300 302 307 312 316 320 326 330 331 332 332 330 331 330 328 329 333 337 339 338 338
292 292 292 291 291 290 290 290 290 291 291 291 291 291 291 291 291 291 291 291 291 291 291 291 290 290 291 290 291 290 290 289 289 289 289 289 289 289 289 289 289 289 289 288 288 289 290 292 293 294 295 295 296 297 298 298 298 299 299 298 298 298 298 299 300 300 302 306 311 315 320 326 329 331 331 330 330 330 329 328 331 335 337 338 338
292 291 292 291 290 290 290 290 290 290 290 290 290 290 290 290 290 290 290 290 290 290 290 290 290 290 291 291 290 290 290 289 288 288 288 288 288 288 288 288 288 288 288 288 288 288 289 291 292 294 295 295 296 297 297 298 299 299 299 299 299 298 298 298 299 300 301 302 307 312 316 321 326 329 330 330 330 330 329 328 330 333 335 337 338
291 291 291 291 290 290 290 290 290 290 290 290 290 290 290 290 290 290 290 290 289 289 289 289 289 290 290 291 290 290 289 289 288 287 287 287 287 287 287 287 287 287 287 287 287 288 288 289 291 293 294 295 296 297 297 298 298 299 299 298 299 299 299 298 299 300 301 301 303 309 313 317 322 327 328 329 329 329 329 328 328 331 334 336 337
291 291 291 291 290 289 289 289 289 289 289 289 289 289 289 289 289 289 289 289 289 289 289 289 289 289 290 290 290 289 289 289 288 288 287 287 287 287 287 287 286 286 286 286 286 287 287 288 289 291 294 296 297 297 298 298 298 298 298 298 298 299 299 299 299 299 300 301 302 305 309 313 317 323 327 328 328 329 329 329 328 329 333 336 336
291 291 291 290 289 289 289 289 289 289 289 289 289 289 289 289 289 289 288 288 288 288 289 289 288 289 289 290 289 289 289 288 288 288 288 288 288 287 287 287 286 286 286 285 286 286 287 287 288 289 292 294 296 297 298 298 299 298 298 298 298 299 299 299 299 298 299 300 301 302 306 310 314 319 325 327 328 328 329 329 329 329 331 334 336
291 291 290 290 289 289 289 289 288 288 288 288 288 288 288 288 288 288 288 288 288 288 288 288 288 288 289 289 289 288 288 288 288 288 288 288 288 287 287 287 286 286 286 285 285 286 286 287 287 288 289 291 294 296 298 298 298 298 298 298 298 298 298 299 299 299 299 300 301 302 304 309 311 315 321 326 327 328 329 329 330 330 330 332 335
291 291 290 289 289 289 289 289 288 288 288 288 287 288 288 288 288 288 288 288 288 288 287 287 287 287 287 288 288 288 288 288 287 287 287 287 287 287 287 287 286 286 286 285 285 286 286 287 287 288 289 290 293 295 296 297 298 298 298 298 298 298 298 298 299 299 299 299 301 302 304 307 311 313 317 323 326 328 329 329 329 330 330 332 334
290 290 290 289 289 289 289 288 288 288 288 287 287 287 287 287 287 287 287 287 287 287 287 287 286 287 287 287 287 287 287 287 287 287 287 287 286 286 286 286 285 285 285 285 285 286 286 287 287 288 289 290 292 295 296 297 297 298 298 298 298 298 298 298 298 298 298 298 299 302 304 307 311 314 316 320 325 327 328 329 330 331 331 332 332
290 290 290 289 289 289 289 288 288 288 287 287 287 287 287 286 286 286 286 286 287 286 287 286 286 286 286 287 287 287 287 287 287 287 286 286 285 285 284 284 284 283 284 284 285 285 285 286 287 288 288 289 291 294 296 297 297 297 297 297 297 297 298 298 298 299 299 299 300 301 304 306 310 314 316 320 324 327 328 329 330 331 332 332 331
290 290 289 289 289 289 289 288 288 288 287 287 287 286 286 286 286 285 285 285 285 285 285 285 285 285 286 286 287 286 286 287 286 286 285 285 284 284 283 283 283 283 283 283 283 283 284 284 285 287 288 289 290 292 294 295 296 297 297 297 298 298 299 298 299 299 300 302 304 306 307 308 310 314 317 319 323 326 328 329 330 331 332 332 331
290 290 289 289 289 289 288 288 288 287 287 287 286 286 286 286 285 285 284 284 284 284 284 284 284 284 285 285 285 285 284 285 285 284 284 284 283 283 283 283 282 282 282 282 282 282 283 283 284 286 288 290 291 292 293 294 295 296 297 298 298 299 299 298 299 300 300 303 306 308 311 312 313 314 317 319 322 325 327 329 330 331 332 332 332
290 290 289 289 289 288 288 288 287 287 287 286 286 286 285 285 285 284 284 284 284 284 283 284 283 283 284 284 284 283 283 283 283 283 283 282 282 282 282 282 282 282 281 281 281 282 282 282 284 285 287 289 290 291 292 293 295 296 297 298 298 298 298 298 300 300 299 301 303 304 308 311 314 316 317 319 321 324 326 328 329 331 331 331 331
290 290 289 289 288 288 288 287 287 286 286 286 285 285 285 285 284 284 283 283 283 283 283 283 283 283 283 283 283 283 283 283 283 283 283 282 282 282 281 281 281 281 281 281 281 281 281 282 283 284 286 287 289 290 291 292 294 295 296 297 298 298 298 298 299 299 298 299 300 300 301 304 308 311 314 317 319 321 324 326 328 329 330 331 331
290 289 289 289 288 288 287 287 286 286 285 285 285 285 285 284 284 283 283 282 282 282 282 282 282 282 282 282 282 283 283 283 283 283 283 282 282 281 281 281 281 280 280 280 280 280 280 281 282 283 283 285 286 288 290 291 293 294 296 297 298 299 299 298 298 299 299 299 299 299 300 300 303 306 308 311 314 317 320 323 325 327 328 330 330
289 289 289 288 288 287 287 286 286 285 285 285 285 284 284 284 283 283 282 282 281 281 281 281 281 281 281 281 281 281 282 282 282 282 282 281 281 281 281 281 280 280 280 280 280 280 280 281 281 282 282 282 284 287 289 291 291 292 294 296 298 298 299 299 299 299 299 299 299 299 300 300 301 303 305 306 308 311 315 319 322 325 326 328 329
289 289 288 288 288 287 287 286 286 285 285 285 284 284 284 283 282 282 282 281 281 281 280 280 280 280 280 280 280 280 281 281 281 281 281 281 280 280 280 280 280 280 279 279 279 280 280 281 281 281 281 282 283 286 288 289 290 290 291 293 295 297 298 299 300 300 300 300 299 299 300 300 301 302 303 305 306 308 311 315 319 322 325 326 327
289 289 288 288 287 287 287 286 285 285 285 284 284 284 283 283 282 281 281 280 280 280 280 280 280 279 279 279 279 279 280 280 280 280 280 280 280 280 280 279 279 279 279 279 279 279 279 280 280 281 281 282 283 284 285 287 288 289 290 291 293 295 296 297 299 299 300 300 300 300 300 301 301 302 302 304 306 308 310 312 316 320 323 325 326
288 288 288 287 287 287 287 286 285 285 284 284 284 283 283 282 281 281 280 280 280 279 279 279 279 279 279 279 279 279 279 279 279 279 279 280 279 279 279 279 279 278 278 279 278 278 279 279 280 281 281 281 281 281 282 285 287 288 288 289 291 294 295 296 297 298 299 300 300 300 301 301 301 301 302 302 304 306 309 312 314 317 320 323 326
Wind_Speed
18 18 15 9 9 10 10 10 9 9 8 9 7 6 7 7 9 8 7 8 7 7 7 6 6 6 7 8 8 8 7 8 9 8 8 9 9 8 9 9 10 10 10 10 10 11 11 11 11 11 11 10 10 10 10 10 10 10 11 11 10 10 11 12 13 14 14 15 15 14 14 14 13 13 12 13 14 15 15 16 16 17 17 15 15
16 19 15 9 9 10 10 10 10 10 9 9 8 7 7 7 8 8 8 8 8 9 8 7 7 8 8 8 9 8 7 8 8 9 8 9 10 9 9 9 9 9 10 10 11 11 11 11 11 12 12 11 11 12 11 11 12 12 13 12 11 11 12 12 13 14 14 15 16 13 13 14 14 13 12 13 14 15 16 18 18 19 19 16 17
14 14 12 9 9 10 11 12 11 10 10 10 10 10 9 9 9 9 9 9 9 10 10 9 9 9 9 10 11 11 10 10 9 9 9 9 9 9 9 9 8 9 10 11 12 11 12 12 11 11 12 12 13 14 14 13 13 13 13 14 13 11 12 12 13 14 14 14 14 13 13 14 14 13 13 13 14 15 17 18 20 22 21 18 19
12 11 11 10 10 11 12 13 13 13 12 11 12 12 13 12 11 10 9 10 10 9 10 11 11 10 11 12 13 13 14 14 13 12 12 11 10 9 9 10 10 10 12 12 12 12 12 12 12 11 12 14 14 14 15 15 15 15 14 14 14 13 12 12 13 13 13 12 12 12 13 14 13 13 13 13 14 15 17 19 22 23 21 20 21
13 12 12 11 12 13 13 13 13 15 15 14 13 14 15 15 15 14 12 10 9 8 9 10 10 11 12 12 13 14 16 16 15 15 15 13 12 11 10 11 11 12 13 13 12 12 13 13 13 12 13 14 15 15 15 15 15 16 15 15 15 14 13 12 12 13 13 11 11 12 14 14 13 13 13 12 13 16 17 20 23 23 22 21 22
13 12 11 12 12 14 15 15 14 15 16 16 15 15 15 15 16 17 16 14 13 11 9 10 10 10 11 12 13 14 16 17 16 17 17 17 16 14 12 12 12 13 13 13 13 13 13 13 14 14 14 15 16 17 17 17 16 16 16 16 15 14 14 13 12 13 13 11 12 13 15 15 14 13 14 12 14 17 17 20 23 23 21 21 22
13 12 12 12 13 14 15 15 16 15 16 16 16 15 15 14 14 16 16 15 16 16 14 13 12 11 12 12 13 13 15 16 16 16 17 18 18 16 14 14 14 13 13 13 13 13 14 14 15 16 17 16 16 17 18 18 17 16 16 16 16 15 14 14 13 12 13 13 13 15 16 17 16 14 14 14 15 16 17 20 23 23 22 21 21
15 15 14 15 16 16 15 16 17 17 17 17 16 16 15 15 14 14 13 13 14 15 16 16 15 14 14 13 13 14 14 14 15 15 15 15 16 16 15 16 16 15 15 15 14 14 14 15 15 16 17 19 19 18 18 19 19 18 17 17 17 16 15 14 13 12 13 14 15 17 18 19 18 16 15 15 15 16 17 20 23 25 24 23 23
18 18 18 18 19 19 18 17 17 18 18 18 17 17 16 16 15 15 13 12 12 11 13 14 14 14 15 15 14 15 16 15 15 14 14 14 14 15 15 17 17 17 17 17 16 16 16 15 16 16 17 19 20 20 20 20 20 20 19 19 18 17 16 15 14 13 13 14 16 18 20 20 20 19 17 16 15 17 19 21 24 25 24 25 25
20 21 21 21 21 21 20 20 19 19 19 19 19 19 18 17 16 16 15 14 13 12 12 12 12 13 15 15 14 15 16 16 17 16 15 14 13 14 15 16 17 19 19 18 17 18 18 18 17 18 18 19 20 21 21 22 22 21 20 20 20 19 18 17 16 15 15 16 17 20 22 22 22 21 19 16 16 18 20 22 25 25 25 26 25
20 20 21 21 22 21 21 20 20 20 20 20 19 19 19 18 18 17 17 16 15 14 13 13 12 12 14 14 14 15 14 14 16 17 16 15 14 14 14 15 16 18 20 20 19 19 19 19 19 20 20 19 20 21 22 22 22 22 21 20 21 20 19 18 18 17 16 17 18 20 23 23 23 22 20 16 17 20 21 24 25 26 26 26 25
18 18 19 19 19 20 20 19 19 19 19 19 19 19 18 18 18 17 17 17 16 16 15 14 13 13 13 13 13 14 14 14 15 16 15 15 14 14 14 14 15 16 17 19 20 20 20 19 19 21 21 21 21 21 22 23 23 23 23 22 21 21 21 19 19 19 18 19 19 20 23 23 24 24 22 18 20 22 22 25 26 26 26 26 24
16 16 17 17 18 18 18 18 19 19 19 19 19 19 19 18 17 17 16 16 16 16 15 15 15 14 13 13 12 13 13 13 14 14 14 14 13 13 14 14 15 15 16 17 19 20 21 21 20 20 21 21 21 20 21 23 24 23 24 24 23 22 22 21 21 21 21 21 21 21 23 24 26 26 23 20 22 23 22 25 26 25 26 26 24
15 15 16 16 17 17 17 18 19 19 19 19 19 19 19 19 19 18 17 16 16 15 15 15 15 15 14 14 13 13 13 13 13 13 14 14 14 13 13 14 14 15 16 16 18 19 20 21 21 21 21 21 21 21 21 22 23 23 24 25 26 25 23 23 22 23 22 22 23 23 23 24 26 27 24 23 23 24 23 23 25 25 25 26 24
15 15 16 16 16 17 17 18 19 19 19 19 19 19 19 19 19 18 18 18 17 16 15 15 15 15 15 14 14 14 14 13 13 13 14 14 14 14 14 14 14 15 15 16 17 18 19 20 21 22 21 21 21 22 22 22 23 24 26 26 27 27 26 24 24 24 24 23 23 24 25 24 25 27 26 25 24 24 24 24 25 25 26 27 25
15 15 15 16 16 17 18 18 19 18 18 18 18 19 19 19 19 18 18 18 18 17 17 16 15 15 15 15 15 16 15 15 14 14 14 15 15 15 15 15 15 15 15 16 16 16 17 18 20 21 21 22 22 23 23 24 24 25 26 27 27 27 27 26 26 26 25 24 24 24 25 26 25 26 28 27 25 25 25 26 26 26 27 28 27
14 14 14 15 16 17 18 18 18 19 19 19 18 19 19 19 19 19 18 18 18 18 17 17 16 16 15 16 16 17 17 17 17 17 17 17 16 16 16 16 16 16 16 16 16 17 17 17 18 19 20 21 22 23 23 24 25 26 26 26 26 27 28 27 27 27 27 26 25 25 26 27 27 26 28 29 27 27 27 28 27 27 28 28 29
13 13 14 15 15 16 17 17 18 19 19 19 19 19 19 19 19 19 19 19 19 18 18 18 17 17 17 17 17 17 18 18 18 18 19 19 19 18 17 17 18 17 17 17 17 18 18 18 18 18 19 20 21 22 23 25 26 26 27 27 28 29 29 28 28 28 27 27 27 27 27 28 28 27 29 31 30 29 31 31 30 29 29 30 30
13 13 14 14 14 15 16 18 18 19 19 19 19 19 20 19 19 19 19 19 19 19 18 18 18 17 17 17 18 19 19 19 19 19 20 21 21 20 20 19 19 19 19 19 19 19 19 19 19 18 19 19 20 21 23 25 26 27 28 28 30 31 32 31 30 29 29 29 29 29 29 30 30 29 29 32 31 31 33 34 33 32 32 32 33
12 13 14 14 14 15 16 18 18 19 19 19 19 20 20 19 19 19 19 19 19 19 19 18 18 18 18 19 19 19 20 20 21 21 21 21 22 22 22 22 22 21 20 20 21 21 21 21 20 20 20 20 20 20 21 23 25 27 29 30 31 33 34 34 33 32 31 31 32 32 32 32 32 31 31 33 33 32 34 36 35 34 34 35 35
13 13 14 13 13 15 16 17 17 18 17 18 18 19 19 19 19 19 19 20 20 20 20 19 19 19 19 19 20 20 21 21 22 22 22 23 22 22 23 23 24 23 23 22 22 22 22 22 22 21 21 21 21 21 21 22 24 26 28 30 32 34 35 35 36 34 34 34 34 34 33 34 33 33 33 33 34 35 35 36 37 37 37 38 38
13 13 13 12 13 14 16 16 17 16 16 17 17 18 18 18 18 18 18 19 20 20 21 21 21 20 20 20 20 21 21 22 23 23 23 23 24 24 24 24 25 25 25 24 23 23 23 23 23 23 23 23 22 22 23 24 24 25 27 29 31 34 36 37 37 36 35 35 36 37 36 35 35 35 35 35 34 36 37 38 40 41 39 40 39
12 13 12 12 12 13 14 15 16 15 16 17 17 17 17 17 17 17 18 18 19 20 21 21 21 21 21 21 21 21 21 22 23 24 24 24 25 25 26 27 27 27 27 27 26 25 24 24 24 25 25 24 24 23 24 25 26 26 27 28 29 32 36 37 38 37 37 37 38 38 38 38 38 37 37 37 35 36 39 39 40 41 41 40 38
11 11 11 10 10 12 13 14 15 14 15 16 16 17 17 17 17 17 17 18 18 19 20 21 21 22 22 22 22 22 21 22 22 23 25 26 27 27 28 29 30 30 30 30 28 27 27 26 26 26 26 26 26 25 26 26 27 27 27 28 29 31 34 37 39 39 38 39 39 39 40 40 40 39 38 39 38 37 40 40 41 42 40 37 36
10 9 9 9 9 11 11 12 13 13 14 15 16 16 16 16 16 17 17 17 17 18 18 19 20 21 21 22 22 22 22 23 23 24 25 27 28 29 30 31 32 32 33 33 32 30 30 29 29 28 29 29 29 28 28 28 28 28 28 29 30 31 33 35 38 39 39 39 40 40 41 42 41 41 40 40 41 40 41 41 42 44 41 38 37
8 8 8 8 9 9 10 11 11 12 13 14 15 15 15 16 16 16 16 16 16 16 17 18 19 20 20 21 21 22 23 24 25 26 27 28 29 31 32 33 33 34 33 34 33 32 31 31 31 31 31 31 31 31 30 30 30 30 30 30 31 30 31 34 37 39 40 40 40 41 42 43 43 43 41 41 43 41 41 42 43 44 44 43 41
8 8 8 8 7 8 8 9 9 10 11 12 12 13 14 14 15 15 15 16 16 16 17 18 19 19 20 20 21 22 23 24 25 27 28 30 31 32 33 33 34 34 33 33 33 33 32 32 32 32 32 32 32 32 32 31 31 31 31 31 31 30 30 32 36 38 40 40 41 41 42 45 44 44 43 41 42 42 41 44 45 45 47 47 45
9 8 8 7 7 7 7 7 8 8 8 9 10 11 12 12 13 13 14 14 15 16 17 18 18 18 19 20 21 21 22 23 24 26 27 28 30 31 33 34 34 34 33 32 32 32 32 32 32 32 32 32 32 33 33 33 33 32 31 31 31 31 30 30 34 37 39 40 41 41 42 45 46 46 46 43 42 44 44 46 48 47 47 47 48
10 10 9 8 7 6 6 6 6 6 6 8 9 10 11 11 12 12 12 13 13 15 16 17 17 18 18 19 20 21 22 23 24 25 25 27 28 29 31 33 34 34 33 32 31 30 31 31 32 32 31 31 32 32 32 33 33 33 32 32 32 31 31 30 32 35 38 39 40 42 42 44 46 47 47 45 43 44 46 46 49 49 47 48 49
11 11 10 8 7 6 5 5 6 5 6 7 8 10 10 11 11 11 12 12 13 14 15 16 16 17 18 18 19 20 21 22 23 24 25 26 27 28 30 31 32 32 33 32 31 30 30 30 30 31 31 31 31 30 31 32 32 32 32 32 32 32 32 32 32 34 36 39 41 42 43 44 46 47 49 47 44 44 45 46 49 50 50 51 50
12 11 10 8 6 4 4 5 5 5 6 7 8 9 10 10 10 10 11 11 13 13 14 15 15 16 16 17 17 18 19 20 21 23 25 26 27 28 29 29 30 30 30 31 31 31 30 30 29 29 30 31 31 30 30 31 31 31 32 32 33 34 35 34 34 35 35 37 41 43 44 45 47 48 50 49 46 45 46 47 48 49 51 53 53
12 11 9 8 6 4 4 4 4 5 6 7 8 8 8 9 9 9 10 10 12 12 13 13 14 15 16 16 17 18 20 21 22 23 24 25 26 27 28 29 29 29 29 29 29 29 30 31 30 30 29 29 30 30 29 29 30 31 31 32 33 35 36 36 36 36 35 35 38 42 45 46 47 48 50 50 48 47 48 48 49 50 51 53 56
12 10 10 8 5 3 3 3 4 5 5 5 6 6 7 7 8 9 9 10 11 11 12 12 13 14 15 17 18 20 22 23 23 24 25 26 27 28 30 30 29 29 29 28 27 27 27 29 31 31 31 30 30 30 29 30 30 29 30 31 33 35 36 37 38 38 37 37 36 39 43 46 48 48 50 51 50 49 49 49 49 51 50 51 56
12 11 10 7 4 2 2 2 3 3 3 4 4 5 6 6 7 8 8 9 10 11 11 12 13 14 16 18 20 23 24 24 25 25 26 27 28 29 29 30 30 30 29 28 27 26 25 27 28 30 31 32 32 31 29 30 30 30 30 30 32 34 36 37 39 38 39 39 37 36 40 44 47 49 50 51 50 50 50 50 50 52 52 53 57
13 12 10 6 3 1 0 0 1 1 2 2 3 4 5 6 7 7 8 9 9 10 11 12 13 15 18 20 22 24 25 25 25 26 26 26 26 27 27 28 29 29 29 27 27 27 26 25 26 28 30 30 32 32 30 31 31 31 30 30 32 33 36 39 40 39 39 39 38 37 37 41 46 49 50 51 50 49 50 51 51 53 54 55 58
14 13 10 7 4 3 2 1 1 1 2 2 3 4 5 6 7 7 8 9 9 9 11 13 14 17 19 21 23 24 25 25 26 26 26 26 26 26 27 27 28 28 28 26 25 26 26 26 25 25 29 30 30 32 31 31 33 33 32 32 33 33 35 39 40 41 40 38 39 39 38 38 43 49 51 50 49 47 47 49 52 53 55 56 57
15 14 11 8 6 5 4 2 1 1 2 3 3 4 6 6 7 8 9 10 10 10 11 13 16 18 20 22 24 25 25 26 27 27 28 28 28 28 29 29 29 28 27 25 24 24 24 26 26 24 26 29 30 30 31 31 32 34 35 35 36 35 35 37 39 42 41 40 40 41 41 40 42 47 51 51 49 47 46 47 50 52 55 57 57
17 15 12 9 7 6 4 2 0 1 3 3 4 5 6 8 9 10 11 11 12 12 13 15 17 19 21 22 24 25 25 26 27 28 29 30 31 31 31 31 31 30 28 26 24 23 22 23 25 25 24 27 30 30 29 30 31 34 36 39 39 38 38 37 39 42 42 43 42 42 43 42 41 45 49 52 51 49 46 46 48 51 55 58 58
18 16 13 10 7 7 5 2 1 2 3 4 5 6 8 9 10 11 12 13 13 13 14 16 18 19 21 22 24 25 25 26 27 28 29 31 32 32 32 32 32 32 30 28 26 24 22 22 25 27 26 26 28 30 30 30 31 33 36 39 39 40 41 40 39 40 41 43 44 43 42 42 42 44 47 50 51 49 47 46 47 49 53 58 58
19 16 14 11 8 7 5 3 2 3 4 5 6 8 10 11 12 13 13 14 14 13 14 16 17 19 21 23 24 25 25 26 27 28 29 30 31 31 32 32 32 32 31 30 28 25 23 23 24 26 28 27 26 27 29 29 31 34 36 37 38 39 40 41 40 40 40 43 45 44 42 42 43 43 46 49 50 50 48 46 47 48 52 55 57
20 17 14 11 9 8 6 4 3 4 5 6 7 9 11 12 14 14 16 16 14 14 15 17 18 19 21 23 24 25 25 26 27 28 28 29 31 31 31 31 30 29 28 27 26 24 23 23 24 26 26 27 26 23 23 26 27 26 26 30 35 38 37 38 40 42 42 43 44 45 43 42 43 44 46 48 50 50 49 47 47 48 51 52 54
22 19 15 12 10 9 8 5 4 4 5 7 8 9 10 11 13 14 16 17 15 15 17 17 18 19 21 23 24 24 25 26 26 27 28 28 29 30 29 29 28 26 25 24 23 22 22 22 24 26 25 24 25 23 21 20 19 18 16 18 24 30 32 33 36 39 37 38 41 43 44 43 44 46 45 46 48 49 49 48 47 48 51 51 50
24 20 15 12 11 9 8 6 5 5 6 7 8 8 9 10 12 14 16 16 14 14 16 17 17 20 22 23 24 24 25 26 26 26 27 27 27 28 28 27 26 25 24 24 23 23 23 22 22 25 26 25 24 23 22 20 20 21 16 12 11 15 19 21 24 28 27 29 34 37 40 43 45 45 43 43 46 48 48 48 48 49 50 51 51
24 20 16 13 11 9 8 6 5 6 6 7 8 8 10 11 13 15 15 15 14 14 16 17 17 20 23 24 25 25 25 25 25 25 25 25 25 25 26 26 26 25 24 25 25 24 23 22 22 23 24 24 23 22 21 21 24 21 11 7 7 7 12 10 9 20 26 26 29 30 32 36 42 43 41 41 45 47 48 48 48 49 50 50 51
24 21 17 13 11 9 7 7 6 6 6 7 8 8 10 12 14 16 16 16 17 18 18 19 21 23 26 26 26 26 25 25 24 24 23 23 23 24 25 25 25 24 24 24 25 24 23 22 21 22 23 22 24 25 23 21 25 26 19 11 7 5 9 8 7 16 24 23 25 27 27 28 33 35 35 39 44 46 46 48 47 48 49 50 51
24 21 17 13 10 9 7 6 6 6 6 7 7 8 10 12 14 16 16 16 18 19 20 22 24 25 26 27 27 26 26 26 25 24 24 24 25 25 24 24 24 23 23 24 24 24 23 22 20 21 22 22 24 26 26 24 24 30 33 30 23 16 11 9 8 11 17 21 25 29 31 31 31 29 27 31 38 42 44 46 47 47 46 48 50
24 20 16 13 10 8 7 7 6 6 6 6 7 8 10 12 13 14 14 14 15 18 19 21 22 24 25 26 27 26 26 26 26 25 25 26 26 26 25 24 24 23 23 24 25 24 23 22 20 21 23 24 24 25 27 27 23 25 32 36 37 33 24 16 11 9 12 18 22 25 28 31 31 29 27 28 32 36 40 43 46 47 46 45 48
23 20 17 13 10 9 8 7 6 6 6 6 6 8 10 11 13 14 15 15 16 19 20 21 22 23 25 26 27 27 26 26 26 26 26 26 26 26 25 25 25 25 24 25 25 25 24 24 23 23 25 26 27 27 28 27 23 22 27 29 30 32 31 28 24 17 10 11 16 18 21 25 29 30 30 30 31 32 36 41 44 47 48 47 48
23 21 18 13 10 9 9 7 6 6 5 5 6 8 9 11 13 14 16 17 18 20 21 22 23 23 25 27 27 27 28 27 26 26 26 26 26 26 26 25 25 26 26 26 26 25 25 25 26 25 26 26 26 27 28 28 26 26 25 25 26 28 29 30 30 24 14 11 14 14 14 17 21 27 29 29 29 29 32 40 44 46 48 48 48
23 21 18 13 10 10 9 7 6 7 5 5 6 8 10 12 13 14 16 17 19 21 22 23 24 24 26 28 27 28 28 28 28 27 27 27 26 26 26 26 26 26 26 26 26 27 26 26 27 26 26 26 26 27 29 30 31 31 27 25 25 23 20 20 21 20 15 13 14 13 11 9 12 21 28 28 29 30 30 36 42 45 46 47 48
23 21 18 13 10 10 10 7 7 7 5 5 7 9 11 12 14 15 16 18 20 21 22 24 25 26 27 28 29 29 29 29 29 28 27 27 27 27 27 27 27 27 27 27 27 28 27 26 25 25 25 25 27 29 32 34 33 31 29 28 28 25 21 17 17 17 13 10 11 13 9 8 11 17 27 31 32 33 32 34 39 43 45 47 47
Wind_Direction
31 39 30 27 11 20 26 23 19 5 358 353 352 334 312 299 300 301 301 293 293 301 298 299 304 309 316 318 321 328 329 325 326 317 311 307 303 300 297 293 291 293 294 295 294 292 291 289 288 289 289 293 296 297 297 295 294 292 287 281 278 279 278 274 266 264 263 261 262 266 267 260 257 262 253 244 241 240 231 219 211 204 204 204 208
27 36 38 34 21 35 29 25 20 11 12 8 9 357 334 316 311 306 297 292 291 292 292 292 294 297 299 303 302 302 297 296 308 311 311 308 306 305 304 304 302 303 307 310 310 311 309 304 298 294 292 292 291 289 291 292 291 292 290 286 281 283 284 277 267 264 263 261 259 261 265 260 260 259 252 251 247 241 230 218 212 209 209 207 210
40 40 43 36 29 35 30 29 24 21 19 18 22 16 7 350 338 323 308 300 295 291 292 289 289 295 296 299 298 294 290 285 284 288 295 300 303 305 308 310 310 309 311 315 314 313 312 312 307 303 300 296 293 289 288 287 288 292 291 289 284 284 291 284 270 265 264 263 258 258 260 258 261 256 251 257 253 241 228 217 211 210 210 208 211
52 52 49 41 37 34 30 29 30 33 30 28 28 28 28 20 12 356 335 321 310 301 299 295 290 292 296 297 296 295 297 294 288 286 283 286 290 293 298 300 304 308 310 313 311 309 309 310 309 308 308 306 303 299 295 290 286 287 289 290 286 282 290 291 278 266 263 264 259 256 257 259 259 256 256 257 253 243 230 219 211 209 207 208 213
57 57 53 50 46 44 40 35 37 40 42 41 38 38 36 34 31 25 17 4 348 328 316 313 306 300 303 305 302 301 304 301 298 294 284 278 283 283 285 289 293 298 303 306 304 304 307 306 307 308 308 310 311 310 306 301 293 287 287 290 289 282 283 290 286 273 265 263 260 256 256 261 261 261 264 257 248 242 234 220 211 208 205 207 214
60 59 55 56 54 54 51 47 47 46 49 48 47 46 43 42 39 37 34 28 23 11 356 345 334 324 320 321 317 311 309 308 303 297 289 280 278 279 277 275 277 284 290 294 297 299 302 302 303 306 306 306 307 308 308 307 305 298 291 289 291 286 280 284 288 281 276 267 259 260 259 262 262 262 265 262 246 238 236 220 210 209 207 209 214
67 69 66 68 67 63 60 57 55 53 54 52 52 51 49 48 45 44 40 36 33 30 25 16 7 357 345 338 336 327 320 318 311 305 302 292 284 280 274 272 274 282 287 288 291 294 296 298 300 303 304 302 299 300 301 302 303 304 299 295 295 291 283 281 284 283 281 274 262 261 264 265 263 263 263 262 250 235 232 219 210 208 207 212 214
77 78 78 80 76 71 68 64 61 59 58 55 54 52 51 49 47 46 42 38 32 31 30 27 22 15 9 2 357 348 341 335 326 318 315 311 304 294 280 278 278 280 287 288 289 291 293 295 297 300 301 302 300 297 296 295 296 298 299 298 298 297 290 282 281 279 278 277 270 264 266 267 264 267 262 257 253 237 230 221 212 208 205 210 212
81 81 82 83 79 75 72 69 67 63 60 58 56 53 51 48 46 43 40 38 29 23 20 18 16 16 17 13 9 5 2 356 350 340 327 324 320 309 297 293 290 288 290 289 288 289 291 293 296 299 299 299 299 297 294 293 294 296 296 296 297 297 295 287 280 277 274 275 274 269 268 266 264 266 261 254 252 237 230 225 213 211 207 206 209
83 82 81 82 79 76 73 71 69 67 63 60 58 55 53 50 48 45 42 39 34 27 19 15 11 10 10 9 5 5 3 358 1 360 347 338 330 320 314 309 304 300 297 293 290 289 291 292 295 297 298 297 296 296 294 294 296 297 296 294 293 293 296 293 284 276 273 273 273 270 268 265 261 261 257 250 249 240 233 227 213 211 210 205 206
83 81 80 79 77 74 71 69 66 64 62 59 57 55 52 50 48 46 43 40 38 34 28 23 14 5 2 1 357 358 359 353 357 2 358 351 343 335 328 321 313 306 303 299 297 293 289 290 294 297 297 296 293 292 291 292 294 295 295 294 292 291 293 295 291 281 273 274 274 271 269 265 258 258 255 242 240 241 233 227 214 210 213 208 206
83 81 79 77 74 70 66 63 61 59 57 55 53 51 50 47 45 43 42 40 38 35 31 26 19 12 4 1 355 355 0 358 357 360 360 357 352 345 340 334 324 315 309 305 303 299 294 291 293 295 295 294 292 288 287 288 290 292 293 294 293 292 291 291 293 288 279 275 275 273 271 265 259 257 253 238 234 238 230 224 218 213 218 214 209
85 81 77 74 70 66 61 57 55 54 53 52 52 50 49 47 45 42 40 37 35 34 31 28 25 21 15 10 4 359 359 360 359 359 357 354 351 344 339 336 332 325 319 312 306 303 299 296 294 294 293 293 292 287 284 286 288 290 292 293 294 294 292 291 291 290 285 278 275 275 272 267 261 258 252 241 234 236 231 224 220 218 220 218 213
86 80 75 70 65 61 56 53 51 51 51 51 51 50 49 48 46 45 42 39 35 32 29 27 26 24 22 17 13 8 3 1 358 358 356 352 350 344 337 333 330 329 326 322 315 308 303 298 295 293 293 293 291 287 285 286 286 289 293 293 294 294 294 294 292 290 287 280 276 276 274 268 262 258 253 244 237 237 236 226 220 218 218 220 217
85 78 72 67 62 57 53 52 50 50 51 51 51 50 49 47 46 44 42 40 36 33 29 26 24 23 21 19 17 15 11 7 2 359 357 354 351 347 344 338 332 330 329 329 324 318 311 303 298 293 291 290 289 288 287 287 287 289 292 293 293 293 293 293 292 291 288 281 275 274 274 269 262 257 252 246 240 238 237 228 219 216 216 219 220
84 77 71 66 59 55 52 51 50 49 48 48 49 48 47 45 44 42 40 38 35 32 30 27 25 22 19 17 15 14 13 10 7 4 1 357 354 352 350 347 342 337 332 331 328 325 320 313 307 300 294 288 286 286 286 288 288 289 290 291 292 292 291 291 290 290 289 283 274 270 270 269 264 256 252 247 241 237 235 232 222 217 218 218 218
84 77 69 63 58 54 52 51 50 48 46 45 44 44 43 41 41 39 37 35 33 30 28 26 24 22 18 15 13 11 10 9 8 6 4 1 358 356 355 353 350 345 338 335 332 329 326 323 318 311 304 294 286 282 283 286 288 289 289 290 291 291 291 290 289 288 288 285 276 270 267 267 265 255 250 246 242 237 234 235 227 219 219 217 217
83 74 67 61 57 53 51 50 48 47 46 45 44 43 42 40 38 36 35 33 31 29 27 25 22 20 17 14 12 10 9 8 6 5 4 3 359 357 356 354 351 347 342 339 336 332 329 328 325 320 314 307 296 285 280 281 285 287 287 288 289 290 290 290 288 287 286 283 279 274 267 265 263 256 249 246 241 237 235 235 232 222 219 218 214
83 71 66 62 57 52 51 49 47 47 46 46 45 44 42 40 38 36 35 33 31 30 27 26 23 21 17 15 12 10 9 7 5 3 2 1 360 359 357 355 351 346 342 339 338 335 331 328 326 324 319 315 307 295 286 282 283 284 284 287 288 288 288 288 286 284 283 282 279 276 269 264 261 257 251 247 241 237 236 235 233 227 221 218 213
84 73 68 64 58 53 50 48 46 47 46 45 43 42 41 38 37 35 34 33 31 30 29 27 26 24 21 18 14 11 9 7 5 2 1 359 358 358 357 356 352 346 341 337 335 333 332 328 325 323 320 316 310 301 293 289 288 284 282 283 285 286 286 285 284 281 280 279 278 276 271 267 263 259 253 248 244 240 239 235 234 231 223 218 214
82 73 69 64 58 52 49 47 46 45 43 41 39 38 37 35 33 33 32 32 31 30 29 28 27 26 23 21 18 15 13 9 7 4 2 1 358 357 356 354 352 348 343 338 334 330 328 326 324 321 319 316 311 304 297 295 294 290 286 286 285 284 284 284 282 280 277 276 276 274 271 269 265 260 254 250 246 242 240 237 235 233 224 217 214
81 72 67 62 56 50 47 45 44 43 40 38 36 35 34 32 31 29 30 30 30 31 30 30 28 27 25 23 21 19 16 13 10 8 5 3 1 359 357 354 351 348 344 340 335 331 327 323 322 319 317 316 313 308 303 300 299 295 291 290 289 285 282 281 280 278 275 273 272 271 270 268 266 263 258 252 246 242 240 238 236 233 225 216 213
80 72 66 62 56 49 44 42 41 39 37 36 34 33 32 30 29 28 28 28 29 29 29 29 28 27 26 24 23 21 18 16 13 10 7 4 1 360 357 355 351 348 345 341 337 333 329 325 322 319 316 314 313 311 308 306 304 302 297 294 294 290 284 280 279 276 273 272 270 269 268 267 267 264 261 256 249 244 242 238 235 231 224 217 213
81 75 71 68 60 51 47 43 39 35 32 31 29 28 28 26 27 26 26 26 26 26 26 26 25 25 24 23 23 22 20 17 15 11 8 4 1 358 356 354 352 350 347 343 339 335 332 328 324 322 319 317 315 313 311 309 307 307 305 301 297 294 289 281 278 276 273 271 269 267 266 266 266 264 262 258 252 247 244 240 235 232 228 222 216
90 86 83 78 63 52 47 43 36 31 26 24 24 23 22 21 22 23 22 22 23 23 23 23 23 22 21 21 20 19 18 16 14 10 7 3 360 357 355 354 351 350 349 346 343 340 336 332 329 325 323 322 320 317 315 313 310 308 307 307 302 297 292 286 279 276 274 271 268 267 265 265 265 264 262 258 254 248 245 241 236 235 233 229 223
103 99 91 82 65 53 44 40 32 26 23 21 22 21 19 18 19 18 18 19 20 22 23 23 23 22 20 18 17 15 14 13 11 8 5 2 360 357 355 354 351 350 349 346 344 341 338 335 332 329 326 324 322 320 318 316 313 310 307 308 308 303 297 291 283 277 275 273 269 267 264 264 263 262 260 258 256 250 245 242 237 234 232 232 229
109 104 99 89 68 56 44 36 28 23 21 19 21 22 21 20 18 16 16 18 20 22 24 25 24 22 20 17 16 14 12 10 8 5 3 1 359 357 354 353 351 349 348 345 342 340 337 334 332 329 327 324 322 320 318 316 314 312 309 307 308 308 303 296 289 281 274 271 270 267 264 263 262 260 259 258 255 251 246 243 239 234 231 231 230
119 119 115 102 83 70 54 38 28 24 18 18 23 25 23 20 18 17 18 19 20 21 22 23 22 21 20 17 15 13 12 9 7 5 2 1 359 356 353 352 349 348 346 343 340 337 335 332 328 326 325 323 322 320 318 316 314 313 311 308 307 307 306 300 293 285 276 270 268 267 264 262 261 260 259 257 255 253 247 244 241 237 234 232 231
137 135 126 113 99 82 59 35 24 25 20 19 24 25 23 19 17 16 18 19 19 20 19 20 19 20 20 18 15 13 12 10 8 6 3 1 359 356 354 351 348 345 343 340 338 334 330 328 325 323 322 320 319 318 317 315 313 312 310 308 306 305 304 302 297 290 282 273 267 266 264 261 260 260 258 256 254 253 249 243 243 241 237 233 233
148 139 129 119 103 83 51 30 25 29 23 20 22 21 18 15 14 13 14 15 16 17 17 17 18 19 19 19 18 15 13 10 7 6 4 2 359 356 353 350 347 344 340 336 333 329 325 323 321 319 318 316 314 313 313 312 311 309 308 306 304 303 301 301 299 294 288 280 272 269 266 261 259 259 258 255 253 253 251 245 243 242 238 234 233
147 138 130 121 106 82 47 35 35 33 23 18 17 14 11 8 8 9 8 9 11 13 13 14 16 17 18 19 18 17 15 13 10 7 4 1 358 354 351 349 347 345 340 334 330 326 322 319 316 315 313 312 310 309 309 307 307 306 306 304 302 301 298 298 298 296 292 285 278 272 268 262 259 258 257 256 252 252 253 250 247 243 240 237 234
144 137 130 124 116 86 49 41 33 27 19 13 10 7 4 2 2 2 2 5 6 8 10 11 14 15 17 17 16 16 16 15 12 8 4 0 357 354 352 350 347 344 340 335 330 326 321 318 314 312 309 308 306 305 304 303 301 302 303 302 301 300 298 298 295 294 293 289 282 274 268 263 258 256 255 255 252 251 252 251 250 246 241 239 236
144 139 136 132 121 75 43 33 25 21 15 10 6 2 358 358 359 357 357 360 2 4 7 9 11 15 16 16 15 14 13 12 9 6 4 1 358 356 354 351 347 343 339 336 331 325 320 316 314 311 308 306 303 301 301 298 297 298 299 300 301 300 299 298 294 292 292 291 287 278 270 264 259 256 254 254 252 251 250 249 249 246 240 238 237
151 145 144 139 116 63 32 24 25 21 16 9 4 360 356 358 357 355 354 355 360 2 4 6 7 13 16 15 13 12 10 8 6 4 3 1 358 356 353 350 347 343 339 336 331 326 320 313 311 309 306 305 301 299 298 295 295 295 296 298 298 299 300 298 295 293 291 289 289 284 275 268 261 257 254 253 252 251 249 247 247 245 242 241 239
158 153 152 144 131 99 71 25 47 44 34 21 10 4 358 359 356 353 352 352 358 359 1 3 3 10 13 12 11 9 7 5 3 2 1 359 357 354 351 348 345 343 339 336 331 327 322 314 310 307 303 301 299 298 297 294 294 293 293 295 295 297 298 296 294 292 290 288 287 285 280 272 265 259 255 253 252 251 250 248 246 245 245 244 240
164 163 163 157 166 180 178 190 126 82 49 26 11 3 355 355 352 350 351 350 354 356 359 359 359 4 9 8 7 5 3 1 359 358 356 355 354 351 350 347 345 342 339 335 329 324 322 316 311 306 302 298 296 295 295 294 293 293 293 293 292 293 293 293 292 290 289 287 284 281 280 277 269 261 257 254 252 251 250 250 248 245 244 244 242
171 171 171 170 183 186 182 198 164 58 28 17 1 355 351 351 351 350 351 351 352 354 356 356 354 359 5 5 4 2 359 357 355 354 352 351 351 350 350 349 346 342 338 333 327 321 319 316 312 307 301 297 294 291 291 291 292 293 294 293 291 291 289 288 289 289 288 285 281 278 276 276 272 265 258 254 252 250 250 251 251 248 244 243 242
177 177 178 182 191 190 192 209 251 360 5 358 350 347 347 351 352 349 348 350 351 351 353 352 351 355 1 3 1 358 355 353 352 350 349 348 348 348 348 348 345 342 338 332 327 322 318 314 310 306 300 295 292 290 288 289 289 290 291 290 291 289 287 285 286 287 285 281 278 275 272 271 271 267 260 255 252 250 248 249 251 250 247 243 241
182 183 186 192 197 197 201 223 287 336 348 342 341 342 344 346 347 347 345 348 347 346 348 347 348 352 357 359 356 351 348 348 347 346 346 345 345 345 344 345 344 341 338 333 330 326 320 314 309 307 301 290 286 286 287 288 288 287 287 287 288 287 286 285 284 283 282 279 276 272 270 266 266 266 263 256 252 250 247 247 248 249 248 245 241
186 187 191 197 199 201 212 237 278 318 330 330 335 338 343 343 344 344 341 344 342 339 341 341 344 348 350 353 350 346 344 343 343 342 342 341 341 341 340 342 342 340 337 332 328 324 319 313 308 306 302 292 284 281 283 287 288 286 283 284 285 284 283 283 281 279 278 276 274 270 267 264 262 263 263 258 252 251 248 245 244 245 246 245 242
187 190 193 199 204 208 222 237 268 303 315 323 332 337 342 343 343 340 336 338 339 337 338 340 344 346 347 348 346 343 341 340 340 340 339 339 338 338 337 337 337 335 330 326 322 318 314 308 303 302 300 295 288 284 283 285 287 286 286 285 284 282 281 281 279 276 275 273 270 267 263 261 258 259 262 259 253 250 248 245 243 242 242 242 241
188 193 196 201 205 215 227 234 260 291 311 319 327 334 339 340 335 333 331 332 336 336 337 340 344 346 346 345 344 342 338 337 337 336 335 335 335 335 333 330 329 327 321 317 313 309 305 301 299 298 298 295 290 288 287 284 280 282 290 292 289 286 283 279 275 273 273 272 269 265 260 257 254 254 257 257 252 249 247 245 241 240 239 239 239
193 195 198 202 207 218 229 234 256 287 306 312 320 326 330 331 327 327 327 328 331 331 333 339 341 341 343 342 341 339 335 334 334 332 331 331 331 330 327 324 321 318 314 311 307 305 303 299 296 293 294 294 288 285 284 279 274 277 284 284 289 300 292 280 274 274 276 274 268 264 259 255 252 251 252 253 251 247 246 244 241 238 237 237 236
195 197 200 205 211 217 228 236 255 283 297 305 314 317 321 323 322 325 328 330 332 330 332 337 336 336 339 339 338 335 332 330 330 329 326 325 325 323 321 318 315 313 311 309 308 307 305 302 297 291 289 292 292 289 283 276 271 271 272 269 280 297 287 285 293 287 282 276 268 266 264 257 252 249 247 248 248 245 244 242 240 238 237 236 235
195 200 204 209 215 217 226 236 252 278 292 301 308 312 316 317 320 328 335 338 337 335 334 334 334 336 337 335 333 331 328 326 325 324 321 319 317 316 314 311 310 310 309 308 307 304 301 297 294 289 287 290 294 293 288 279 268 261 254 257 273 267 269 294 323 291 282 277 270 270 272 265 257 250 245 244 244 243 242 241 240 238 236 236 235
197 201 205 211 216 217 223 234 252 277 289 298 306 310 313 315 324 331 337 339 335 334 333 330 331 333 332 330 328 328 326 323 323 322 318 316 314 312 310 308 306 306 306 306 303 299 296 290 287 287 287 287 288 288 286 283 275 264 254 248 251 254 262 295 311 293 285 281 273 273 276 274 267 261 252 246 244 243 241 239 239 237 235 234 233
196 200 203 210 216 218 222 232 258 282 290 297 302 307 313 318 325 329 331 331 324 323 325 323 324 326 325 324 323 324 324 322 321 319 316 314 311 311 311 309 306 304 305 304 301 298 294 288 284 282 285 287 285 281 280 282 283 276 262 249 247 251 256 265 271 281 291 284 274 271 274 277 273 267 262 254 249 249 247 242 240 237 235 233 231
194 198 201 208 215 220 223 234 268 291 292 296 302 308 315 320 324 326 328 328 322 320 321 320 321 323 321 320 319 319 320 319 317 315 312 310 309 310 310 309 307 305 304 302 300 298 293 288 283 280 282 283 277 274 275 278 281 283 279 267 257 255 256 256 253 256 273 285 281 272 271 277 275 269 266 263 259 257 253 248 243 239 236 234 232
193 198 200 205 213 220 228 239 279 301 296 297 306 311 317 321 324 326 326 327 325 322 320 320 322 322 319 317 316 315 316 315 312 310 308 307 307 308 308 307 306 304 302 299 297 295 291 286 282 279 279 277 274 275 277 278 278 278 282 282 276 268 261 255 249 248 252 265 277 278 274 278 276 270 267 269 271 270 260 251 245 240 236 232 230
193 197 198 204 212 220 232 248 292 310 306 305 311 316 321 322 325 327 325 327 327 323 321 321 323 322 318 316 314 313 311 309 308 307 306 306 307 307 306 303 302 301 298 294 292 291 289 285 280 277 275 274 276 278 277 275 273 271 273 277 277 271 263 256 247 244 249 254 262 271 276 280 279 276 271 266 268 273 268 254 246 242 238 232 228
192 196 198 204 212 221 234 257 303 318 314 317 319 320 323 324 327 328 327 328 326 322 320 322 323 320 316 314 312 310 307 305 304 304 303 305 306 304 302 299 298 297 292 290 288 288 288 285 280 275 272 273 276 278 274 269 266 268 272 273 271 268 260 254 246 242 245 251 263 271 274 275 270 274 276 271 266 268 266 257 247 242 239 232 227